TimeICT,TemperatureF,Dew PointF,Humidity,Sea Level PressureIn,VisibilityMPH,Wind Direction,Wind SpeedMPH,Gust SpeedMPH,PrecipitationIn,Events,Conditions,WindDirDegrees,DateUTC
12:00 AM,75.2,66.2,73,29.83,2.5,Calm,Calm,-,N/A,,Mist,0,2013-01-06 17:00:00
12:30 AM,75.2,64.4,69,29.83,2.5,Calm,Calm,-,N/A,,Mist,0,2013-01-06 17:30:00
1:00 AM,75.2,64.4,69,29.83,2.5,Calm,Calm,-,N/A,,Mist,0,2013-01-06 18:00:00
1:30 AM,75.2,62.6,65,29.83,1.9,Calm,Calm,-,N/A,,Mist,0,2013-01-06 18:30:00
2:00 AM,73.4,62.6,69,29.83,1.9,Calm,Calm,-,N/A,,Mist,0,2013-01-06 19:00:00
2:30 AM,73.4,62.6,69,29.83,1.9,Calm,Calm,-,N/A,,Mist,0,2013-01-06 19:30:00
3:00 AM,73.4,62.6,69,29.83,1.9,Calm,Calm,-,N/A,,Mist,0,2013-01-06 20:00:00
3:30 AM,73.4,60.8,65,29.80,1.9,Calm,Calm,-,N/A,,Mist,0,2013-01-06 20:30:00
4:00 AM,71.6,60.8,69,29.80,1.9,Calm,Calm,-,N/A,,Mist,0,2013-01-06 21:00:00
4:30 AM,71.6,60.8,69,29.80,1.9,Calm,Calm,-,N/A,,Mist,0,2013-01-06 21:30:00
5:30 AM,71.6,59.0,64,29.83,1.9,Calm,Calm,-,N/A,,Mist,0,2013-01-06 22:30:00
6:00 AM,69.8,60.8,73,29.83,1.9,Calm,Calm,-,N/A,,Mist,0,2013-01-06 23:00:00
6:30 AM,69.8,60.8,73,29.83,1.2,NNE,4.6,-,N/A,,Mist,30,2013-01-06 23:30:00
7:00 AM,69.8,60.8,73,29.83,1.2,North,4.6,-,N/A,,Mist,10,2013-01-07 00:00:00
7:30 AM,71.6,60.8,69,29.86,1.9,NNE,5.8,-,N/A,,Mist,20,2013-01-07 00:30:00
8:00 AM,77.0,60.8,57,29.86,1.9,NE,5.8,-,N/A,,Haze,50,2013-01-07 01:00:00
8:30 AM,78.8,59.0,51,29.89,2.5,NE,6.9,-,N/A,,Haze,40,2013-01-07 01:30:00
9:00 AM,82.4,59.0,45,29.89,2.5,NNE,6.9,-,N/A,,Haze,20,2013-01-07 02:00:00
9:30 AM,84.2,57.2,40,29.89,2.5,NNE,6.9,-,N/A,,Haze,30,2013-01-07 02:30:00
10:00 AM,87.8,57.2,35,29.89,3.1,NE,6.9,-,N/A,,Haze,50,2013-01-07 03:00:00
10:30 AM,87.8,57.2,35,29.89,3.1,NE,6.9,-,N/A,,Haze,40,2013-01-07 03:30:00
11:00 AM,91.4,55.4,29,29.89,3.1,East,4.6,-,N/A,,Haze,80,2013-01-07 04:00:00
11:30 AM,91.4,57.2,31,29.89,3.1,SE,4.6,-,N/A,,Haze,140,2013-01-07 04:30:00
12:00 PM,89.6,59.0,36,29.86,3.1,SSW,6.9,-,N/A,,Haze,200,2013-01-07 05:00:00
12:30 PM,89.6,60.8,38,29.86,3.1,South,9.2,-,N/A,,Haze,180,2013-01-07 05:30:00
1:00 PM,89.6,62.6,40,29.83,3.1,SW,9.2,-,N/A,,Haze,230,2013-01-07 06:00:00
2:00 PM,91.4,62.6,38,29.80,3.1,SW,6.9,-,N/A,,Haze,220,2013-01-07 07:00:00
2:30 PM,91.4,60.8,36,29.80,3.1,WSW,4.6,-,N/A,,Haze,250,2013-01-07 07:30:00
3:00 PM,91.4,60.8,36,29.77,3.1,WSW,4.6,-,N/A,,Haze,240,2013-01-07 08:00:00
3:30 PM,91.4,64.4,41,29.77,3.1,West,4.6,-,N/A,,Haze,270,2013-01-07 08:30:00
4:00 PM,91.4,62.6,38,29.77,3.1,NNW,6.9,-,N/A,,Haze,330,2013-01-07 09:00:00
4:30 PM,89.6,62.6,40,29.77,3.1,North,6.9,-,N/A,,Haze,350,2013-01-07 09:30:00
5:00 PM,87.8,60.8,40,29.80,3.1,North,5.8,-,N/A,,Haze,350,2013-01-07 10:00:00
5:30 PM,86.0,60.8,43,29.80,3.1,North,9.2,-,N/A,,Haze,350,2013-01-07 10:30:00
6:00 PM,84.2,64.4,51,29.80,2.5,NNW,4.6,-,N/A,,Haze,340,2013-01-07 11:00:00
6:30 PM,82.4,66.2,58,29.83,2.5,North,4.6,-,N/A,,Haze,350,2013-01-07 11:30:00
7:00 PM,82.4,66.2,58,29.83,2.5,North,3.5,-,N/A,,Haze,10,2013-01-07 12:00:00
7:30 PM,80.6,66.2,61,29.86,2.5,Calm,Calm,-,N/A,,Haze,0,2013-01-07 12:30:00
8:00 PM,80.6,66.2,61,29.86,2.5,Calm,Calm,-,N/A,,Haze,0,2013-01-07 13:00:00
8:30 PM,78.8,66.2,65,29.86,2.5,Calm,Calm,-,N/A,,Haze,0,2013-01-07 13:30:00
9:00 PM,78.8,66.2,65,29.86,2.5,Calm,Calm,-,N/A,,Mist,0,2013-01-07 14:00:00
9:30 PM,77.0,68.0,74,29.86,2.5,Calm,Calm,-,N/A,,Mist,0,2013-01-07 14:30:00
10:00 PM,77.0,66.2,69,29.86,2.5,Calm,Calm,-,N/A,,Mist,0,2013-01-07 15:00:00
10:30 PM,77.0,66.2,69,29.86,2.5,Calm,Calm,-,N/A,,Mist,0,2013-01-07 15:30:00
11:00 PM,75.2,68.0,78,29.86,2.5,Calm,Calm,-,N/A,,Mist,0,2013-01-07 16:00:00
11:30 PM,75.2,68.0,78,29.86,2.5,Calm,Calm,-,N/A,,Mist,0,2013-01-07 16:30:00